sat.trackr.live / text

‹ back to catalog

DEIMOS

NORAD 60526 · 2024-149BL

PAYLOAD ACTIVE UNKNOWN

§ Identity

Operator
Country
US
Launch date
2024-08-16
Launch site
AFWTR
Launch vehicle
Mass (kg)
RCS (m²)

External: N2YO · Heavens-Above · Gunter

§ Orbital elements

Epoch: 2026-09-22T16:46:16.406400Z

Period
93.05 min
Inclination
97.3740°
Eccentricity
0.0003775
Mean motion
15.47515878 rev/d
Perigee alt
421.4 km
Apogee alt
426.6 km
Semi-major
6,802.1 km
B*
3.0372e-4
RAAN
353.4920°
Arg perigee
291.8918°
Mean anomaly
68.1931°
Rev number
11,751

§ Raw data

DEIMOS1 60526U 24149BL  26265.69880100  .00015529  00000+0  30372-3 0  99912 60526  97.3740 353.4920 0003775 291.8918  68.1931 15.47515878117511

JSON: /api/v1/satellites/60526 · /tle

For live sub-satellite position, see the globe view (requires WebGL).

§ Visibility from observer

Set your observer location to see the next 7 days of passes ≥ 10°. The values pass through the URL so the page stays shareable.

No JS? Fill the form by hand. The geolocation button needs JavaScript.

§ Radio — SatNOGS DB

ModeDescriptionDownlinkUplink
FM Mode U - Downlink 1 400.200 MHz
GMSK Mode U - GMSK9k6 400.300 MHz
GMSK UHF 9k6 Emergency (inactive) 401.500 MHz

3 transmitters · refreshed weekly from db.satnogs.org